TimeCDT,TemperatureF,Dew PointF,Humidity,Sea Level PressureIn,VisibilityMPH,Wind Direction,Wind SpeedMPH,Gust SpeedMPH,PrecipitationIn,Events,Conditions,WindDirDegrees,DateUTC
12:15 AM,55.4,53.6,94,29.95,5.0,Calm,Calm,-,N/A,,Clear,0,2014-04-02 05:15:00
12:35 AM,55.4,53.6,94,29.96,7.0,Calm,Calm,-,N/A,,Clear,0,2014-04-02 05:35:00
12:55 AM,53.6,53.6,100,29.96,5.0,Calm,Calm,-,N/A,,Scattered Clouds,0,2014-04-02 05:55:00
1:15 AM,55.4,55.4,100,29.96,5.0,Calm,Calm,-,N/A,,Overcast,0,2014-04-02 06:15:00
1:35 AM,57.2,55.4,94,29.96,6.0,Calm,Calm,-,N/A,,Overcast,0,2014-04-02 06:35:00
1:55 AM,57.2,57.2,100,29.96,7.0,Calm,Calm,-,N/A,,Overcast,0,2014-04-02 06:55:00
2:15 AM,59.0,57.2,94,29.96,7.0,Calm,Calm,-,N/A,,Overcast,0,2014-04-02 07:15:00
2:35 AM,59.0,57.2,94,29.95,7.0,Calm,Calm,-,N/A,,Overcast,0,2014-04-02 07:35:00
2:55 AM,59.0,57.2,94,29.94,7.0,Calm,Calm,-,N/A,,Overcast,0,2014-04-02 07:55:00
3:15 AM,59.0,57.2,94,29.93,7.0,Calm,Calm,-,N/A,,Overcast,0,2014-04-02 08:15:00
3:35 AM,57.2,55.4,94,29.93,6.0,Calm,Calm,-,N/A,,Scattered Clouds,0,2014-04-02 08:35:00
3:55 AM,57.2,55.4,94,29.92,5.0,Calm,Calm,-,N/A,,Mostly Cloudy,0,2014-04-02 08:55:00
4:15 AM,57.2,55.4,94,29.93,5.0,Calm,Calm,-,N/A,,Overcast,0,2014-04-02 09:15:00
4:35 AM,57.2,57.2,100,29.93,5.0,Calm,Calm,-,N/A,,Overcast,0,2014-04-02 09:35:00
4:55 AM,57.2,57.2,100,29.93,6.0,Calm,Calm,-,N/A,,Overcast,0,2014-04-02 09:55:00
5:15 AM,57.2,57.2,100,29.94,7.0,Calm,Calm,-,N/A,,Overcast,0,2014-04-02 10:15:00
5:35 AM,57.2,57.2,100,29.94,7.0,Calm,Calm,-,N/A,,Overcast,0,2014-04-02 10:35:00
5:55 AM,57.2,57.2,100,29.93,6.0,Calm,Calm,-,N/A,,Overcast,0,2014-04-02 10:55:00
6:15 AM,57.2,57.2,100,29.93,6.0,Calm,Calm,-,N/A,,Overcast,0,2014-04-02 11:15:00
7:35 AM,59.0,57.2,94,29.94,7.0,Calm,Calm,-,N/A,,Overcast,0,2014-04-02 12:35:00
7:55 AM,60.8,57.2,88,29.94,7.0,Calm,Calm,-,N/A,,Overcast,0,2014-04-02 12:55:00
8:15 AM,60.8,59.0,94,29.94,8.0,Calm,Calm,-,N/A,,Overcast,0,2014-04-02 13:15:00
8:35 AM,62.6,60.8,94,29.93,7.0,Calm,Calm,-,N/A,,Overcast,0,2014-04-02 13:35:00
8:55 AM,64.4,62.6,94,29.93,7.0,Calm,Calm,-,N/A,,Overcast,0,2014-04-02 13:55:00
9:15 AM,66.2,62.6,88,29.93,7.0,SSE,6.9,-,N/A,,Overcast,160,2014-04-02 14:15:00
9:35 AM,66.2,62.6,88,29.93,7.0,SE,9.2,-,N/A,,Overcast,140,2014-04-02 14:35:00
9:55 AM,68.0,64.4,88,29.93,7.0,SSE,8.1,-,N/A,,Overcast,160,2014-04-02 14:55:00
10:15 AM,68.0,64.4,88,29.93,7.0,SSE,8.1,-,N/A,,Overcast,160,2014-04-02 15:15:00
10:35 AM,69.8,64.4,83,29.93,7.0,SSE,6.9,-,N/A,,Overcast,150,2014-04-02 15:35:00
10:55 AM,68.0,64.4,88,29.93,6.0,South,8.1,19.6,N/A,,Overcast,180,2014-04-02 15:55:00
11:15 AM,68.0,64.4,88,29.94,6.0,SSE,12.7,16.1,N/A,,Overcast,160,2014-04-02 16:15:00
11:35 AM,68.0,64.4,88,29.93,6.0,South,9.2,-,N/A,,Overcast,170,2014-04-02 16:35:00
11:55 AM,68.0,64.4,88,29.93,6.0,South,9.2,-,N/A,,Overcast,180,2014-04-02 16:55:00
12:15 PM,66.2,64.4,94,29.92,4.0,South,9.2,-,N/A,,Overcast,170,2014-04-02 17:15:00
12:55 PM,66.2,64.4,94,29.92,2.5,South,8.1,-,N/A,,Overcast,180,2014-04-02 17:55:00
1:15 PM,66.2,64.4,94,29.91,2.5,South,9.2,-,N/A,,Overcast,190,2014-04-02 18:15:00
1:35 PM,66.2,64.4,94,29.91,1.2,SSE,3.5,-,N/A,,Overcast,160,2014-04-02 18:35:00
1:55 PM,66.2,66.2,100,29.90,0.8,SE,5.8,-,N/A,,Overcast,140,2014-04-02 18:55:00
2:15 PM,66.2,66.2,100,29.90,1.0,SSE,6.9,-,N/A,,Overcast,160,2014-04-02 19:15:00
2:35 PM,66.2,66.2,100,29.89,2.0,SSE,5.8,-,N/A,,Overcast,160,2014-04-02 19:35:00
2:55 PM,66.2,66.2,100,29.88,1.0,SSE,5.8,-,N/A,,Overcast,150,2014-04-02 19:55:00
3:15 PM,66.2,66.2,100,29.88,1.0,SSE,6.9,-,N/A,,Overcast,160,2014-04-02 20:15:00
3:35 PM,66.2,66.2,100,29.87,1.5,SSE,5.8,-,N/A,Rain,Light Rain,150,2014-04-02 20:35:00
3:55 PM,66.2,66.2,100,29.87,1.0,SE,3.5,-,N/A,Rain,Light Rain,140,2014-04-02 20:55:00
4:15 PM,66.2,66.2,100,29.86,2.0,SE,3.5,-,N/A,,Overcast,140,2014-04-02 21:15:00
4:35 PM,66.2,66.2,100,29.86,3.0,SSE,4.6,-,N/A,,Overcast,160,2014-04-02 21:35:00
4:55 PM,68.0,66.2,94,29.85,3.0,SSE,4.6,-,N/A,,Overcast,150,2014-04-02 21:55:00
5:15 PM,68.0,66.2,94,29.85,4.0,SSE,5.8,-,N/A,,Overcast,160,2014-04-02 22:15:00
5:35 PM,69.8,68.0,94,29.84,4.0,SSE,6.9,-,N/A,,Overcast,150,2014-04-02 22:35:00
5:55 PM,69.8,68.0,94,29.84,5.0,SSE,6.9,-,N/A,,Mostly Cloudy,150,2014-04-02 22:55:00
6:15 PM,69.8,68.0,94,29.84,5.0,SSE,4.6,-,N/A,,Overcast,150,2014-04-02 23:15:00
6:35 PM,69.8,66.2,88,29.84,7.0,SE,4.6,-,N/A,,Overcast,140,2014-04-02 23:35:00
6:55 PM,69.8,68.0,94,29.84,7.0,Calm,Calm,-,N/A,,Mostly Cloudy,0,2014-04-02 23:55:00
7:15 PM,69.8,68.0,94,29.84,7.0,Calm,Calm,-,N/A,,Mostly Cloudy,0,2014-04-03 00:15:00
7:35 PM,68.0,66.2,94,29.84,5.0,Calm,Calm,-,N/A,,Mostly Cloudy,0,2014-04-03 00:35:00
7:55 PM,66.2,66.2,100,29.83,3.0,Calm,Calm,-,N/A,,Overcast,0,2014-04-03 00:55:00
8:15 PM,66.2,66.2,100,29.83,3.0,Calm,Calm,-,N/A,,Mostly Cloudy,0,2014-04-03 01:15:00
8:35 PM,66.2,66.2,100,29.83,5.0,SE,3.5,-,N/A,,Mostly Cloudy,140,2014-04-03 01:35:00
8:55 PM,69.8,66.2,88,29.84,7.0,SSE,3.5,-,N/A,,Scattered Clouds,160,2014-04-03 01:55:00
9:15 PM,69.8,66.2,88,29.83,8.0,SE,3.5,-,N/A,,Mostly Cloudy,140,2014-04-03 02:15:00
9:35 PM,69.8,66.2,88,29.84,8.0,SSE,5.8,-,N/A,,Mostly Cloudy,160,2014-04-03 02:35:00
9:55 PM,71.6,66.2,83,29.84,8.0,SSE,8.1,-,N/A,,Overcast,150,2014-04-03 02:55:00
10:15 PM,71.6,66.2,83,29.83,9.0,SE,3.5,-,N/A,,Mostly Cloudy,140,2014-04-03 03:15:00
10:35 PM,71.6,66.2,83,29.84,9.0,South,3.5,-,N/A,,Mostly Cloudy,180,2014-04-03 03:35:00
10:55 PM,71.6,66.2,83,29.85,9.0,SSE,4.6,-,N/A,,Overcast,160,2014-04-03 03:55:00
11:15 PM,71.6,68.0,88,29.84,8.0,South,4.6,-,N/A,,Overcast,170,2014-04-03 04:15:00
11:35 PM,71.6,68.0,88,29.83,9.0,South,5.8,-,N/A,,Overcast,180,2014-04-03 04:35:00
11:55 PM,71.6,66.2,83,29.81,9.0,SSE,9.2,-,N/A,,Scattered Clouds,150,2014-04-03 04:55:00